| time (UTC) | temp C | wind direction | speed KPH | gust KPH | rain 1hr cm | rain 24hr cm | rain mn cm | humidity % | barometer mb |
| 20260902232602 | 26 | 290 | 12.9 | 25.7 | 0.00 | 0.00 | 0.00 | 36 | 1021.8 |
| 20260902232051 | 26 | 297 | 14.5 | 27.4 | 0.00 | 0.00 | 0.00 | 37 | 1021.8 |
| 20260902231604 | 26 | 277 | 17.7 | 32.2 | 0.00 | 0.00 | 0.00 | 38 | 1021.7 |
| 20260902231053 | 26 | 305 | 16.1 | 32.2 | 0.00 | 0.00 | 0.00 | 38 | 1021.7 |
| 20260902230545 | 26 | 267 | 17.7 | 30.6 | 0.00 | 0.00 | 0.00 | 38 | 1021.8 |
| 20260902230052 | 27 | 319 | 19.3 | 30.6 | 0.00 | 0.00 | 0.00 | 36 | 1021.7 |
| 20260902225559 | 27 | 270 | 17.7 | 30.6 | 0.00 | 0.00 | 0.00 | 31 | 1021.7 |
| 20260902225002 | 27 | 238 | 12.9 | 27.4 | 0.00 | 0.00 | 0.00 | 29 | 1021.7 |
| 20260902224556 | 28 | 292 | 14.5 | 27.4 | 0.00 | 0.00 | 0.00 | 29 | 1021.8 |
| 20260902224104 | 28 | 258 | 14.5 | 25.7 | 0.00 | 0.00 | 0.00 | 28 | 1021.7 |
| 20260902223557 | 29 | 306 | 14.5 | 29.0 | 0.00 | 0.00 | 0.00 | 27 | 1021.7 |
| 20260902223109 | 29 | 329 | 17.7 | 29.0 | 0.00 | 0.00 | 0.00 | 27 | 1021.6 |
| 20260902222600 | 29 | 281 | 9.7 | 24.1 | 0.00 | 0.00 | 0.00 | 28 | 1021.6 |
| 20260902222047 | 30 | 290 | 11.3 | 19.3 | 0.00 | 0.00 | 0.00 | 27 | 1021.6 |
| 20260902221558 | 30 | 232 | 8.0 | 16.1 | 0.00 | 0.00 | 0.00 | 27 | 1021.7 |
| 20260902221105 | 30 | 270 | 8.0 | 16.1 | 0.00 | 0.00 | 0.00 | 27 | 1021.7 |
| 20260902220505 | 30 | 329 | 8.0 | 19.3 | 0.00 | 0.00 | 0.00 | 28 | 1021.7 |
| 20260902220050 | 30 | 282 | 11.3 | 19.3 | 0.00 | 0.00 | 0.00 | 28 | 1021.9 |
| 20260902215559 | 30 | 290 | 8.0 | 24.1 | 0.00 | 0.00 | 0.00 | 27 | 1021.9 |
| 20260902215102 | 30 | 275 | 6.4 | 25.7 | 0.00 | 0.00 | 0.00 | 27 | 1022.1 |
| 20260902214554 | 30 | 259 | 6.4 | 25.7 | 0.00 | 0.00 | 0.00 | 27 | 1022.0 |
| 20260902214105 | 30 | 203 | 9.7 | 25.7 | 0.00 | 0.00 | 0.00 | 28 | 1022.0 |
| 20260902213506 | 30 | 223 | 6.4 | 16.1 | 0.00 | 0.00 | 0.00 | 27 | 1022.0 |
| 20260902213101 | 30 | 234 | 4.8 | 22.5 | 0.00 | 0.00 | 0.00 | 28 | 1022.1 |
| 20260902212503 | 29 | 218 | 11.3 | 22.5 | 0.00 | 0.00 | 0.00 | 27 | 1022.1 |
| 20260902212101 | 28 | 160 | 4.8 | 16.1 | 0.00 | 0.00 | 0.00 | 29 | 1022.1 |
| 20260902211503 | 28 | 184 | 9.7 | 24.1 | 0.00 | 0.00 | 0.00 | 29 | 1022.2 |
| 20260902211101 | 28 | 175 | 11.3 | 24.1 | 0.00 | 0.00 | 0.00 | 29 | 1022.3 |
| 20260902210552 | 28 | 187 | 11.3 | 24.1 | 0.00 | 0.00 | 0.00 | 29 | 1022.4 |
| 20260902210100 | 28 | 167 | 14.5 | 24.1 | 0.00 | 0.00 | 0.00 | 29 | 1022.4 |
| 20260902205550 | 28 | 192 | 9.7 | 17.7 | 0.00 | 0.00 | 0.00 | 29 | 1022.4 |
| 20260902205058 | 28 | 228 | 8.0 | 20.9 | 0.00 | 0.00 | 0.00 | 30 | 1022.6 |
| 20260902204503 | 28 | 201 | 11.3 | 20.9 | 0.00 | 0.00 | 0.00 | 30 | 1022.6 |
| 20260902204009 | 28 | 119 | 4.8 | 16.1 | 0.00 | 0.00 | 0.00 | 30 | 1022.7 |
| 20260902203604 | 28 | 163 | 1.6 | 16.1 | 0.00 | 0.00 | 0.00 | 30 | 1022.8 |
| 20260902203008 | 28 | 260 | 1.6 | 24.1 | 0.00 | 0.00 | 0.00 | 30 | 1022.9 |
| 20260902202604 | 28 | 198 | 8.0 | 24.1 | 0.00 | 0.00 | 0.00 | 30 | 1022.9 |
| 20260902202056 | 29 | 200 | 8.0 | 17.7 | 0.00 | 0.00 | 0.00 | 30 | 1023.0 |
| 20260902201605 | 28 | 182 | 4.8 | 9.7 | 0.00 | 0.00 | 0.00 | 30 | 1023.0 |
| 20260902201057 | 28 | 302 | 4.8 | 11.3 | 0.00 | 0.00 | 0.00 | 30 | 1023.1 |
| 20260902200604 | 28 | 302 | 4.8 | 11.3 | 0.00 | 0.00 | 0.00 | 30 | 1023.1 |
| 20260902200055 | 28 | 218 | 1.6 | 14.5 | 0.00 | 0.00 | 0.00 | 29 | 1023.2 |
| 20260902195548 | 29 | 321 | 1.6 | 14.5 | 0.00 | 0.00 | 0.00 | 29 | 1023.3 |
| 20260902195054 | 28 | 213 | 4.8 | 19.3 | 0.00 | 0.00 | 0.00 | 30 | 1023.3 |
| 20260902194600 | 28 | 304 | 9.7 | 19.3 | 0.00 | 0.00 | 0.00 | 30 | 1023.4 |
| 20260902194004 | 28 | 259 | 0.0 | 9.7 | 0.00 | 0.00 | 0.00 | 29 | 1023.5 |
| 20260902193604 | 28 | 288 | 1.6 | 12.9 | 0.00 | 0.00 | 0.00 | 30 | 1023.6 |
| 20260902193005 | 28 | 292 | 6.4 | 22.5 | 0.00 | 0.00 | 0.00 | 30 | 1023.7 |
| 20260902192602 | 28 | 230 | 4.8 | 22.5 | 0.00 | 0.00 | 0.00 | 30 | 1023.7 |
| 20260902192052 | 28 | 310 | 3.2 | 6.4 | 0.00 | 0.00 | 0.00 | 29 | 1023.8 |
| 20260902191610 | 28 | 323 | 1.6 | 14.5 | 0.00 | 0.00 | 0.00 | 28 | 1023.9 |
| 20260902191003 | 29 | 209 | 4.8 | 16.1 | 0.00 | 0.00 | 0.00 | 28 | 1023.9 |
| 20260902190511 | 29 | 311 | 4.8 | 16.1 | 0.00 | 0.00 | 0.00 | 27 | 1024.0 |
| 20260902190105 | 29 | 207 | 8.0 | 17.7 | 0.00 | 0.00 | 0.00 | 29 | 1024.0 |
| 20260902185555 | 28 | 230 | 6.4 | 22.5 | 0.00 | 0.00 | 0.00 | 30 | 1024.1 |
| 20260902185101 | 28 | 210 | 9.7 | 22.5 | 0.00 | 0.00 | 0.00 | 30 | 1024.2 |
| 20260902184557 | 28 | 277 | 3.2 | 12.9 | 0.00 | 0.00 | 0.00 | 31 | 1024.2 |
| 20260902184104 | 28 | 302 | 3.2 | 20.9 | 0.00 | 0.00 | 0.00 | 31 | 1024.3 |
| 20260902183600 | 27 | 236 | 4.8 | 20.9 | 0.00 | 0.00 | 0.00 | 32 | 1024.5 |
| 20260902183045 | 28 | 323 | 8.0 | 12.9 | 0.00 | 0.00 | 0.00 | 29 | 1024.5 |
| 20260902182554 | 28 | 215 | 6.4 | 17.7 | 0.00 | 0.00 | 0.00 | 30 | 1024.6 |
| 20260902182104 | 27 | 286 | 4.8 | 17.7 | 0.00 | 0.00 | 0.00 | 31 | 1024.6 |
| 20260902181504 | 28 | 275 | 3.2 | 11.3 | 0.00 | 0.00 | 0.00 | 31 | 1024.7 |
| 20260902181101 | 27 | 206 | 4.8 | 11.3 | 0.00 | 0.00 | 0.00 | 32 | 1024.8 |
| 20260902180503 | 27 | 287 | 1.6 | 12.9 | 0.00 | 0.00 | 0.00 | 32 | 1024.9 |
| 20260902180018 | 27 | 142 | 4.8 | 12.9 | 0.00 | 0.00 | 0.00 | 30 | 1025.0 |
| 20260902175526 | 27 | 190 | 6.4 | 12.9 | 0.00 | 0.00 | 0.00 | 34 | 1025.0 |
| 20260902175035 | 27 | 237 | 3.2 | 14.5 | 0.00 | 0.00 | 0.00 | 33 | 1025.0 |
| 20260902174552 | 27 | 169 | 3.2 | 14.5 | 0.00 | 0.00 | 0.00 | 33 | 1025.0 |
| 20260902174052 | 27 | 263 | 3.2 | 11.3 | 0.00 | 0.00 | 0.00 | 34 | 1025.1 |
| 20260902173556 | 26 | 192 | 6.4 | 11.3 | 0.00 | 0.00 | 0.00 | 35 | 1025.0 |
| 20260902173103 | 26 | 229 | 3.2 | 9.7 | 0.00 | 0.00 | 0.00 | 35 | 1025.1 |
| 20260902172506 | 26 | 204 | 3.2 | 9.7 | 0.00 | 0.00 | 0.00 | 36 | 1025.1 |
| 20260902172100 | 26 | 252 | 3.2 | 9.7 | 0.00 | 0.00 | 0.00 | 36 | 1025.1 |
| 20260902171504 | 26 | 92 | 3.2 | 11.3 | 0.00 | 0.00 | 0.00 | 37 | 1025.2 |
| 20260902171100 | 25 | 78 | 3.2 | 11.3 | 0.00 | 0.00 | 0.00 | 36 | 1025.1 |
| 20260902170550 | 25 | 153 | 6.4 | 11.3 | 0.00 | 0.00 | 0.00 | 38 | 1025.2 |
| 20260902170059 | 25 | 148 | 3.2 | 8.0 | 0.00 | 0.00 | 0.00 | 38 | 1025.3 |
| 20260902165501 | 25 | 180 | 4.8 | 11.3 | 0.00 | 0.00 | 0.00 | 37 | 1025.4 |
| 20260902165009 | 25 | 154 | 6.4 | 11.3 | 0.00 | 0.00 | 0.00 | 37 | 1025.3 |
| 20260902164517 | 25 | 209 | 1.6 | 9.7 | 0.00 | 0.00 | 0.00 | 38 | 1025.3 |
| 20260902164027 | 24 | 136 | 4.8 | 8.0 | 0.00 | 0.00 | 0.00 | 38 | 1025.4 |
| 20260902163533 | 24 | 207 | 3.2 | 6.4 | 0.00 | 0.00 | 0.00 | 38 | 1025.4 |
| 20260902163041 | 23 | 209 | 3.2 | 6.4 | 0.00 | 0.00 | 0.00 | 40 | 1025.3 |
| 20260902162532 | 23 | 67 | 1.6 | 11.3 | 0.00 | 0.00 | 0.00 | 41 | 1025.3 |
| 20260902162041 | 23 | 179 | 1.6 | 11.3 | 0.00 | 0.00 | 0.00 | 41 | 1025.4 |
| 20260902161548 | 23 | 157 | 4.8 | 11.3 | 0.00 | 0.00 | 0.00 | 41 | 1025.3 |
| 20260902161055 | 23 | 183 | 3.2 | 9.7 | 0.00 | 0.00 | 0.00 | 42 | 1025.3 |
| 20260902160548 | 22 | 138 | 4.8 | 11.3 | 0.00 | 0.00 | 0.00 | 42 | 1025.3 |
| 20260902160058 | 22 | 159 | 4.8 | 12.9 | 0.00 | 0.00 | 0.00 | 42 | 1025.2 |
| 20260902155605 | 22 | 125 | 6.4 | 12.9 | 0.00 | 0.00 | 0.00 | 43 | 1025.3 |
| 20260902155009 | 22 | 132 | 3.2 | 12.9 | 0.00 | 0.00 | 0.00 | 44 | 1025.3 |
| 20260902154610 | 21 | 85 | 3.2 | 12.9 | 0.00 | 0.00 | 0.00 | 44 | 1025.3 |
| 20260902154006 | 21 | 98 | 3.2 | 14.5 | 0.00 | 0.00 | 0.00 | 45 | 1025.4 |
| 20260902153602 | 21 | 100 | 4.8 | 12.9 | 0.00 | 0.00 | 0.00 | 45 | 1025.4 |
| 20260902153055 | 21 | 88 | 4.8 | 14.5 | 0.00 | 0.00 | 0.00 | 45 | 1025.4 |
| 20260902152603 | 20 | 85 | 6.4 | 14.5 | 0.00 | 0.00 | 0.00 | 45 | 1025.5 |
| 20260902152057 | 20 | 96 | 6.4 | 11.3 | 0.00 | 0.00 | 0.00 | 45 | 1025.5 |
| 20260902151547 | 20 | 101 | 4.8 | 11.3 | 0.00 | 0.00 | 0.00 | 47 | 1025.4 |
| 20260902151057 | 20 | 129 | 3.2 | 11.3 | 0.00 | 0.00 | 0.00 | 46 | 1025.5 |
| 20260902150547 | 19 | 123 | 6.4 | 12.9 | 0.00 | 0.00 | 0.00 | 46 | 1025.5 |
| 20260902150037 | 19 | 133 | 4.8 | 12.9 | 0.00 | 0.00 | 0.00 | 46 | 1025.5 |
| 20260902145545 | 18 | 111 | 6.4 | 12.9 | 0.00 | 0.00 | 0.00 | 46 | 1025.5 |
| 20260902145052 | 18 | 126 | 6.4 | 12.9 | 0.00 | 0.00 | 0.00 | 46 | 1025.4 |
| 20260902144559 | 18 | 100 | 8.0 | 14.5 | 0.00 | 0.00 | 0.00 | 47 | 1025.4 |
| 20260902144106 | 18 | 131 | 8.0 | 12.9 | 0.00 | 0.00 | 0.00 | 47 | 1025.4 |
| 20260902143508 | 17 | 126 | 4.8 | 14.5 | 0.00 | 0.00 | 0.00 | 47 | 1025.3 |
| 20260902143102 | 17 | 133 | 9.7 | 14.5 | 0.00 | 0.00 | 0.00 | 47 | 1025.3 |
| 20260902142505 | 17 | 123 | 4.8 | 12.9 | 0.00 | 0.00 | 0.00 | 48 | 1025.3 |
| 20260902142102 | 17 | 90 | 4.8 | 12.9 | 0.00 | 0.00 | 0.00 | 47 | 1025.3 |
| 20260902141507 | 17 | 126 | 4.8 | 12.9 | 0.00 | 0.00 | 0.00 | 48 | 1025.2 |
| 20260902141013 | 17 | 130 | 6.4 | 12.9 | 0.00 | 0.00 | 0.00 | 49 | 1025.1 |
| 20260902140520 | 16 | 67 | 4.8 | 14.5 | 0.00 | 0.00 | 0.00 | 50 | 1025.1 |
| 20260902140108 | 16 | 103 | 6.4 | 14.5 | 0.00 | 0.00 | 0.00 | 50 | 1025.0 |
| 20260902135506 | 16 | 92 | 6.4 | 14.5 | 0.00 | 0.00 | 0.00 | 52 | 1025.0 |
| 20260902135102 | 15 | 103 | 6.4 | 14.5 | 0.00 | 0.00 | 0.00 | 54 | 1025.0 |
| 20260902134504 | 15 | 117 | 6.4 | 14.5 | 0.00 | 0.00 | 0.00 | 55 | 1024.9 |
| 20260902134100 | 15 | 90 | 8.0 | 14.5 | 0.00 | 0.00 | 0.00 | 55 | 1024.9 |
| 20260902133605 | 15 | 92 | 8.0 | 14.5 | 0.00 | 0.00 | 0.00 | 55 | 1024.8 |
| 20260902133009 | 14 | 90 | 8.0 | 14.5 | 0.00 | 0.00 | 0.00 | 55 | 1024.8 |
| 20260902132504 | 14 | 113 | 8.0 | 14.5 | 0.00 | 0.00 | 0.00 | 55 | 1024.9 |
| 20260902132009 | 14 | 72 | 8.0 | 12.9 | 0.00 | 0.00 | 0.00 | 56 | 1024.9 |
| 20260902131502 | 14 | 96 | 6.4 | 11.3 | 0.00 | 0.00 | 0.00 | 56 | 1024.8 |
| 20260902131057 | 14 | 94 | 8.0 | 11.3 | 0.00 | 0.00 | 0.00 | 56 | 1024.8 |
| 20260902130606 | 13 | 84 | 6.4 | 12.9 | 0.00 | 0.00 | 0.00 | 56 | 1024.8 |
| 20260902130057 | 13 | 106 | 4.8 | 12.9 | 0.00 | 0.00 | 0.00 | 56 | 1024.7 |
| 20260902125606 | 13 | 79 | 6.4 | 16.1 | 0.00 | 0.00 | 0.00 | 56 | 1024.6 |
| 20260902125057 | 13 | 98 | 6.4 | 16.1 | 0.00 | 0.00 | 0.00 | 57 | 1024.6 |
| 20260902124547 | 13 | 94 | 6.4 | 12.9 | 0.00 | 0.00 | 0.00 | 57 | 1024.3 |
| 20260902124054 | 13 | 101 | 6.4 | 12.9 | 0.00 | 0.00 | 0.00 | 57 | 1024.5 |
| 20260902123603 | 13 | 86 | 6.4 | 11.3 | 0.00 | 0.00 | 0.00 | 57 | 1024.4 |
| 20260902123006 | 13 | 98 | 8.0 | 12.9 | 0.00 | 0.00 | 0.00 | 57 | 1024.4 |
| 20260902122600 | 13 | 100 | 4.8 | 9.7 | 0.00 | 0.00 | 0.00 | 58 | 1024.5 |
| 20260902122003 | 13 | 98 | 4.8 | 9.7 | 0.00 | 0.00 | 0.00 | 60 | 1024.4 |
| 20260902121600 | 13 | 108 | 4.8 | 9.7 | 0.00 | 0.00 | 0.00 | 62 | 1024.3 |
| 20260902121004 | 13 | 100 | 4.8 | 9.7 | 0.00 | 0.00 | 0.00 | 62 | 1024.3 |
| 20260902120602 | 13 | 107 | 4.8 | 9.7 | 0.00 | 0.00 | 0.00 | 62 | 1024.2 |
| 20260902120051 | 13 | 113 | 4.8 | 9.7 | 0.00 | 0.00 | 0.00 | 62 | 1024.3 |
| 20260902115559 | 13 | 118 | 6.4 | 9.7 | 0.00 | 0.00 | 0.00 | 61 | 1024.4 |
| 20260902115003 | 13 | 110 | 4.8 | 8.0 | 0.00 | 0.00 | 0.00 | 60 | 1024.4 |
| 20260902114512 | 13 | 101 | 4.8 | 8.0 | 0.00 | 0.00 | 0.00 | 59 | 1024.3 |
| 20260902114002 | 13 | 96 | 3.2 | 6.4 | 0.00 | 0.00 | 0.00 | 58 | 1024.4 |
| 20260902113509 | 13 | 121 | 4.8 | 9.7 | 0.00 | 0.00 | 0.00 | 58 | 1024.5 |
| 20260902113001 | 13 | 114 | 4.8 | 9.7 | 0.00 | 0.00 | 0.00 | 58 | 1024.3 |
| 20260902112557 | 13 | 108 | 4.8 | 9.7 | 0.00 | 0.00 | 0.00 | 59 | 1024.3 |
| 20260902112105 | 13 | 106 | 3.2 | 9.7 | 0.00 | 0.00 | 0.00 | 58 | 1024.2 |
| 20260902111601 | 13 | 101 | 4.8 | 12.9 | 0.00 | 0.00 | 0.00 | 57 | 1024.3 |
| 20260902111047 | 14 | 126 | 8.0 | 11.3 | 0.00 | 0.00 | 0.00 | 58 | 1024.3 |
| 20260902110557 | 14 | 89 | 3.2 | 11.3 | 0.00 | 0.00 | 0.00 | 57 | 1024.0 |
| 20260902105504 | 13 | 91 | 8.0 | 11.3 | 0.00 | 0.00 | 0.00 | 57 | 1023.9 |
| 20260902105059 | 13 | 112 | 6.4 | 11.3 | 0.00 | 0.00 | 0.00 | 58 | 1023.9 |
| 20260902104503 | 13 | 110 | 6.4 | 11.3 | 0.00 | 0.00 | 0.00 | 58 | 1024.0 |
| 20260902104101 | 13 | 103 | 8.0 | 11.3 | 0.00 | 0.00 | 0.00 | 58 | 1024.1 |
| 20260902103504 | 14 | 127 | 6.4 | 9.7 | 0.00 | 0.00 | 0.00 | 58 | 1024.1 |
| 20260902103116 | 14 | 117 | 6.4 | 9.7 | 0.00 | 0.00 | 0.00 | 58 | 1024.0 |
| 20260902102553 | 14 | 109 | 6.4 | 9.7 | 0.00 | 0.00 | 0.00 | 57 | 1023.9 |
| 20260902102059 | 15 | 115 | 4.8 | 9.7 | 0.00 | 0.00 | 0.00 | 57 | 1024.0 |
| 20260902101503 | 15 | 146 | 4.8 | 9.7 | 0.00 | 0.00 | 0.00 | 57 | 1024.0 |
| 20260902101009 | 15 | 137 | 4.8 | 8.0 | 0.00 | 0.00 | 0.00 | 56 | 1024.0 |
| 20260902100517 | 15 | 146 | 4.8 | 8.0 | 0.00 | 0.00 | 0.00 | 55 | 1023.9 |
| 20260902100126 | 15 | 131 | 4.8 | 9.7 | 0.00 | 0.00 | 0.00 | 54 | 1023.8 |
| 20260902095553 | 16 | 134 | 3.2 | 9.7 | 0.00 | 0.00 | 0.00 | 54 | 1023.8 |
| 20260902095101 | 16 | 107 | 4.8 | 9.7 | 0.00 | 0.00 | 0.00 | 52 | 1023.8 |
| 20260902094504 | 16 | 102 | 3.2 | 6.4 | 0.00 | 0.00 | 0.00 | 52 | 1023.7 |
| 20260902094101 | 16 | 106 | 4.8 | 6.4 | 0.00 | 0.00 | 0.00 | 52 | 1023.7 |
| 20260902093504 | 16 | 111 | 4.8 | 6.4 | 0.00 | 0.00 | 0.00 | 51 | 1023.8 |
| 20260902093114 | 16 | 97 | 3.2 | 6.4 | 0.00 | 0.00 | 0.00 | 51 | 1023.8 |
| 20260902092550 | 16 | 92 | 1.6 | 4.8 | 0.00 | 0.00 | 0.00 | 51 | 1023.7 |
| 20260902092058 | 16 | 102 | 3.2 | 6.4 | 0.00 | 0.00 | 0.00 | 50 | 1023.8 |
| 20260902091501 | 16 | 29 | 3.2 | 4.8 | 0.00 | 0.00 | 0.00 | 50 | 1023.8 |
| 20260902091009 | 16 | 29 | 1.6 | 6.4 | 0.00 | 0.00 | 0.00 | 50 | 1023.7 |
| 20260902090516 | 16 | 28 | 3.2 | 8.0 | 0.00 | 0.00 | 0.00 | 50 | 1023.7 |
| 20260902090028 | 16 | 34 | 4.8 | 6.4 | 0.00 | 0.00 | 0.00 | 52 | 1023.8 |
| 20260902085531 | 16 | 42 | 3.2 | 6.4 | 0.00 | 0.00 | 0.00 | 52 | 1023.8 |
| 20260902085041 | 16 | 38 | 3.2 | 6.4 | 0.00 | 0.00 | 0.00 | 54 | 1023.8 |
| 20260902084548 | 16 | 34 | 3.2 | 4.8 | 0.00 | 0.00 | 0.00 | 54 | 1023.8 |
| 20260902084058 | 16 | 34 | 1.6 | 3.2 | 0.00 | 0.00 | 0.00 | 54 | 1023.8 |
| 20260902083546 | 16 | 34 | 1.6 | 3.2 | 0.00 | 0.00 | 0.00 | 52 | 1023.8 |
| 20260902083057 | 16 | 34 | 1.6 | 1.6 | 0.00 | 0.00 | 0.00 | 50 | 1023.8 |
| 20260902082549 | 17 | 34 | 0.0 | 3.2 | 0.00 | 0.00 | 0.00 | 49 | 1023.9 |
| 20260902082037 | 17 | 34 | 1.6 | 3.2 | 0.00 | 0.00 | 0.00 | 50 | 1023.9 |
| 20260902081548 | 17 | 34 | 3.2 | 3.2 | 0.00 | 0.00 | 0.00 | 50 | 1023.9 |
| 20260902081053 | 17 | 23 | 0.0 | 3.2 | 0.00 | 0.00 | 0.00 | 51 | 1023.9 |
| 20260902080601 | 17 | 319 | 0.0 | 3.2 | 0.00 | 0.00 | 0.00 | 50 | 1024.0 |
| 20260902080055 | 17 | 212 | 0.0 | 3.2 | 0.00 | 0.00 | 0.00 | 49 | 1024.0 |
| 20260902075600 | 17 | 212 | 0.0 | 3.2 | 0.00 | 0.00 | 0.00 | 49 | 1024.0 |
| 20260902075005 | 17 | 246 | 0.0 | 4.8 | 0.00 | 0.00 | 0.00 | 48 | 1024.2 |
| 20260902074514 | 17 | 158 | 1.6 | 4.8 | 0.00 | 0.00 | 0.00 | 47 | 1024.1 |
| 20260902074003 | 17 | 30 | 0.0 | 4.8 | 0.00 | 0.00 | 0.00 | 46 | 1023.9 |
| 20260902073557 | 17 | 30 | 1.6 | 4.8 | 0.00 | 0.00 | 0.00 | 47 | 1023.9 |
| 20260902073001 | 16 | 30 | 1.6 | 3.2 | 0.00 | 0.00 | 0.00 | 47 | 1023.9 |
| 20260902072602 | 16 | 30 | 0.0 | 4.8 | 0.00 | 0.00 | 0.00 | 47 | 1023.9 |
| 20260902072002 | 16 | 30 | 1.6 | 4.8 | 0.00 | 0.00 | 0.00 | 48 | 1023.8 |
| 20260902071603 | 16 | 30 | 1.6 | 4.8 | 0.00 | 0.00 | 0.00 | 49 | 1023.8 |
| 20260902071005 | 16 | 13 | 1.6 | 3.2 | 0.00 | 0.00 | 0.00 | 51 | 1023.9 |
| 20260902070513 | 16 | 360 | 1.6 | 4.8 | 0.00 | 0.00 | 0.00 | 51 | 1023.9 |
| 20260902070104 | 16 | 360 | 1.6 | 4.8 | 0.00 | 0.00 | 0.00 | 51 | 1023.9 |
| 20260902065507 | 16 | 333 | 0.0 | 3.2 | 0.00 | 0.00 | 0.00 | 51 | 1023.9 |
| 20260902065015 | 17 | 325 | 0.0 | 9.7 | 0.00 | 0.00 | 0.00 | 51 | 1023.9 |
| 20260902064525 | 17 | 351 | 3.2 | 12.9 | 0.00 | 0.00 | 0.00 | 50 | 1023.9 |
| 20260902064032 | 17 | 333 | 4.8 | 12.9 | 0.00 | 0.00 | 0.00 | 50 | 1023.8 |
| 20260902063539 | 17 | 321 | 6.4 | 19.3 | 0.00 | 0.00 | 0.00 | 49 | 1023.9 |
| 20260902063047 | 18 | 281 | 3.2 | 19.3 | 0.00 | 0.00 | 0.00 | 49 | 1023.8 |
| 20260902062559 | 18 | 277 | 4.8 | 9.7 | 0.00 | 0.00 | 0.00 | 48 | 1023.8 |
| 20260902062046 | 18 | 125 | 3.2 | 4.8 | 0.00 | 0.00 | 0.00 | 46 | 1023.6 |
| 20260902061615 | 18 | 108 | 1.6 | 4.8 | 0.00 | 0.00 | 0.00 | 44 | 1023.5 |
| 20260902061104 | 19 | 140 | 1.6 | 4.8 | 0.00 | 0.00 | 0.00 | 43 | 1023.6 |
| 20260902060503 | 19 | 143 | 1.6 | 6.4 | 0.00 | 0.00 | 0.00 | 43 | 1023.6 |
| 20260902060059 | 19 | 131 | 3.2 | 6.4 | 0.00 | 0.00 | 0.00 | 42 | 1023.6 |
| 20260902055601 | 19 | 110 | 3.2 | 4.8 | 0.00 | 0.00 | 0.00 | 41 | 1023.6 |
| 20260902055006 | 19 | 103 | 3.2 | 4.8 | 0.00 | 0.00 | 0.00 | 41 | 1023.6 |
| 20260902054602 | 19 | 61 | 1.6 | 4.8 | 0.00 | 0.00 | 0.00 | 41 | 1023.6 |
| 20260902054005 | 20 | 39 | 0.0 | 3.2 | 0.00 | 0.00 | 0.00 | 42 | 1023.6 |
| 20260902053603 | 20 | 39 | 0.0 | 6.4 | 0.00 | 0.00 | 0.00 | 42 | 1023.6 |
| 20260902053007 | 19 | 60 | 3.2 | 8.0 | 0.00 | 0.00 | 0.00 | 40 | 1023.5 |
| 20260902052602 | 19 | 57 | 4.8 | 8.0 | 0.00 | 0.00 | 0.00 | 40 | 1023.6 |
| 20260902052058 | 19 | 55 | 3.2 | 8.0 | 0.00 | 0.00 | 0.00 | 42 | 1023.5 |
| 20260902051545 | 20 | 101 | 3.2 | 8.0 | 0.00 | 0.00 | 0.00 | 42 | 1023.5 |
| 20260902051053 | 20 | 57 | 1.6 | 6.4 | 0.00 | 0.00 | 0.00 | 41 | 1023.5 |
| 20260902050546 | 20 | 51 | 1.6 | 6.4 | 0.00 | 0.00 | 0.00 | 41 | 1023.5 |
| 20260902050054 | 20 | 28 | 3.2 | 6.4 | 0.00 | 0.00 | 0.00 | 41 | 1023.4 |
| 20260902045601 | 20 | 19 | 4.8 | 8.0 | 0.00 | 0.00 | 0.00 | 41 | 1023.3 |
| 20260902045004 | 20 | 30 | 4.8 | 8.0 | 0.00 | 0.00 | 0.00 | 41 | 1023.4 |
| 20260902044559 | 20 | 24 | 3.2 | 8.0 | 0.00 | 0.00 | 0.00 | 40 | 1023.4 |
| 20260902044002 | 20 | 21 | 3.2 | 8.0 | 0.00 | 0.00 | 0.00 | 40 | 1023.4 |
| 20260902043559 | 20 | 35 | 3.2 | 8.0 | 0.00 | 0.00 | 0.00 | 41 | 1023.3 |
| 20260902043052 | 20 | 19 | 3.2 | 8.0 | 0.00 | 0.00 | 0.00 | 40 | 1023.4 |
| 20260902042557 | 20 | 13 | 4.8 | 9.7 | 0.00 | 0.00 | 0.00 | 40 | 1023.4 |
| 20260902042050 | 20 | 24 | 4.8 | 9.7 | 0.00 | 0.00 | 0.00 | 40 | 1023.4 |
| 20260902041616 | 20 | 24 | 3.2 | 6.4 | 0.00 | 0.00 | 0.00 | 41 | 1023.3 |
| 20260902041105 | 20 | 22 | 3.2 | 6.4 | 0.00 | 0.00 | 0.00 | 40 | 1023.3 |
| 20260902040508 | 21 | 24 | 1.6 | 6.4 | 0.00 | 0.00 | 0.00 | 40 | 1023.2 |
| 20260902040001 | 21 | 19 | 3.2 | 6.4 | 0.00 | 0.00 | 0.00 | 40 | 1023.3 |
| 20260902035509 | 21 | 21 | 3.2 | 4.8 | 0.00 | 0.00 | 0.00 | 40 | 1023.2 |
| 20260902035105 | 21 | 24 | 3.2 | 4.8 | 0.00 | 0.00 | 0.00 | 40 | 1023.2 |
| 20260902034558 | 21 | 30 | 3.2 | 6.4 | 0.00 | 0.00 | 0.00 | 39 | 1023.2 |
| 20260902034001 | 21 | 17 | 3.2 | 4.8 | 0.00 | 0.00 | 0.00 | 39 | 1023.1 |
| 20260902033558 | 21 | 19 | 3.2 | 8.0 | 0.00 | 0.00 | 0.00 | 39 | 1023.1 |
| 20260902033051 | 22 | 30 | 3.2 | 8.0 | 0.00 | 0.00 | 0.00 | 39 | 1023.1 |
| 20260902032557 | 22 | 25 | 3.2 | 9.7 | 0.00 | 0.00 | 0.00 | 39 | 1023.1 |
| 20260902032050 | 22 | 33 | 4.8 | 9.7 | 0.00 | 0.00 | 0.00 | 39 | 1023.0 |
| 20260902031614 | 22 | 36 | 3.2 | 6.4 | 0.00 | 0.00 | 0.00 | 42 | 1023.0 |
| 20260902031001 | 22 | 28 | 3.2 | 6.4 | 0.00 | 0.00 | 0.00 | 42 | 1023.0 |
| 20260902030508 | 22 | 347 | 0.0 | 3.2 | 0.00 | 0.00 | 0.00 | 41 | 1022.8 |
| 20260902030103 | 22 | 347 | 0.0 | 3.2 | 0.00 | 0.00 | 0.00 | 41 | 1022.9 |
| 20260902025507 | 23 | 347 | 0.0 | 3.2 | 0.00 | 0.00 | 0.00 | 42 | 1022.9 |
| 20260902025014 | 23 | 347 | 1.6 | 3.2 | 0.00 | 0.00 | 0.00 | 43 | 1022.8 |
| 20260902024533 | 23 | 255 | 0.0 | 3.2 | 0.00 | 0.00 | 0.00 | 40 | 1022.7 |
| 20260902024030 | 23 | 255 | 0.0 | 3.2 | 0.00 | 0.00 | 0.00 | 39 | 1022.7 |
| 20260902023538 | 23 | 255 | 0.0 | 3.2 | 0.00 | 0.00 | 0.00 | 40 | 1022.7 |
| 20260902023059 | 23 | 255 | 0.0 | 3.2 | 0.00 | 0.00 | 0.00 | 39 | 1022.6 |
| 20260902022553 | 23 | 255 | 0.0 | 3.2 | 0.00 | 0.00 | 0.00 | 39 | 1022.6 |
| 20260902022102 | 23 | 255 | 0.0 | 3.2 | 0.00 | 0.00 | 0.00 | 39 | 1022.6 |
| 20260902021513 | 23 | 255 | 0.0 | 4.8 | 0.00 | 0.00 | 0.00 | 39 | 1022.5 |
| 20260902021102 | 24 | 256 | 1.6 | 4.8 | 0.00 | 0.00 | 0.00 | 38 | 1022.5 |
| 20260902020502 | 24 | 240 | 0.0 | 3.2 | 0.00 | 0.00 | 0.00 | 38 | 1022.5 |
| 20260902020051 | 25 | 231 | 0.0 | 3.2 | 0.00 | 0.00 | 0.00 | 38 | 1022.5 |
| 20260902015558 | 25 | 216 | 0.0 | 3.2 | 0.00 | 0.00 | 0.00 | 38 | 1022.5 |
| 20260902015002 | 25 | 226 | 0.0 | 3.2 | 0.00 | 0.00 | 0.00 | 37 | 1022.3 |
| 20260902014556 | 25 | 226 | 0.0 | 3.2 | 0.00 | 0.00 | 0.00 | 36 | 1022.4 |
| 20260902014105 | 25 | 212 | 0.0 | 3.2 | 0.00 | 0.00 | 0.00 | 35 | 1022.3 |
| 20260902013602 | 25 | 225 | 0.0 | 3.2 | 0.00 | 0.00 | 0.00 | 35 | 1022.3 |
| 20260902013105 | 26 | 252 | 0.0 | 3.2 | 0.00 | 0.00 | 0.00 | 34 | 1022.3 |
| 20260902012557 | 26 | 252 | 1.6 | 6.4 | 0.00 | 0.00 | 0.00 | 34 | 1022.4 |
| 20260902012001 | 26 | 277 | 1.6 | 6.4 | 0.00 | 0.00 | 0.00 | 33 | 1022.3 |
| 20260902011509 | 26 | 285 | 3.2 | 8.0 | 0.00 | 0.00 | 0.00 | 33 | 1022.3 |
| 20260902011103 | 26 | 296 | 3.2 | 11.3 | 0.00 | 0.00 | 0.00 | 32 | 1022.4 |
| 20260902010507 | 26 | 286 | 4.8 | 11.3 | 0.00 | 0.00 | 0.00 | 32 | 1022.4 |
| 20260902010109 | 26 | 259 | 1.6 | 6.4 | 0.00 | 0.00 | 0.00 | 32 | 1022.4 |
| 20260902005553 | 26 | 258 | 1.6 | 4.8 | 0.00 | 0.00 | 0.00 | 32 | 1022.3 |
| 20260902005101 | 27 | 312 | 1.6 | 6.4 | 0.00 | 0.00 | 0.00 | 32 | 1022.4 |
| 20260902004507 | 27 | 263 | 1.6 | 11.3 | 0.00 | 0.00 | 0.00 | 32 | 1022.4 |
| 20260902004015 | 27 | 217 | 3.2 | 9.7 | 0.00 | 0.00 | 0.00 | 31 | 1022.4 |
| 20260902003607 | 27 | 289 | 1.6 | 9.7 | 0.00 | 0.00 | 0.00 | 31 | 1022.5 |
| 20260902003009 | 27 | 278 | 3.2 | 12.9 | 0.00 | 0.00 | 0.00 | 31 | 1022.5 |
| 20260902002604 | 27 | 195 | 3.2 | 8.0 | 0.00 | 0.00 | 0.00 | 31 | 1022.5 |
| 20260902002055 | 27 | 248 | 3.2 | 9.7 | 0.00 | 0.00 | 0.00 | 31 | 1022.4 |
| 20260902001612 | 27 | 251 | 3.2 | 9.7 | 0.00 | 0.00 | 0.00 | 32 | 1022.5 |
| 20260902001054 | 27 | 306 | 1.6 | 14.5 | 0.00 | 0.00 | 0.00 | 31 | 1022.5 |
| 20260902000605 | 27 | 309 | 9.7 | 14.5 | 0.00 | 0.00 | 0.00 | 31 | 1022.6 |
| 20260902000055 | 27 | 297 | 9.7 | 16.1 | 0.00 | 0.00 | 0.00 | 32 | 1022.6 |
| 20260901235545 | 27 | 268 | 6.4 | 16.1 | 0.00 | 0.00 | 0.00 | 31 | 1022.6 |
| 20260901235053 | 27 | 229 | 8.0 | 14.5 | 0.00 | 0.00 | 0.00 | 31 | 1022.7 |
| 20260901234607 | 27 | 301 | 6.4 | 19.3 | 0.00 | 0.00 | 0.00 | 30 | 1022.7 |
| 20260901234004 | 28 | 309 | 8.0 | 19.3 | 0.00 | 0.00 | 0.00 | 31 | 1022.7 |
| 20260901233602 | 28 | 177 | 1.6 | 12.9 | 0.00 | 0.00 | 0.00 | 31 | 1022.8 |
| 20260901233010 | 28 | 178 | 3.2 | 17.7 | 0.00 | 0.00 | 0.00 | 30 | 1022.8 |